Location: Pace/Milton
(30.6162°N, 87.1503°W)
Time: 12:32:47
(UTC-06:00)

N. Korean satellite - Pass Details

Date: 29 November 2021
Orbit: 447 x 491 km, 97.3° (Epoch: 21 January)

Event Time Altitude Azimuth Distance (km) Brightness Sun altitude
Rises 04:25:42 0° 24° (NNE) 2,456 10.3 -25.6°
Reaches altitude 10° 04:27:56 10° 37° (NE) 1,576 9.4 -25.1°
Maximum altitude 04:30:52 27° 98° (E) 883 8.5 -24.5°
Drops below altitude 10° 04:33:47 10° 158° (SSE) 1,563 9.5 -23.9°
Sets 04:35:59 0° 171° (S) 2,431 10.4 -23.4°
